FW2998 Weather Reports


time (UTC)temp
F
wind
direction
speed
knots
gust
knots
rain 1hr
in
rain 24hr
in
rain mn
in
humidity
%
barometer
mb
20260506184021 80 233 0.0 5.2 0.00 0.00 0.00 64 1014.7
20260506183520 79 146 0.0 3.5 0.00 0.00 0.00 64 1014.6
20260506183037 79 338 0.0 7.8 0.00 0.00 0.00 64 1014.8
20260506182519 79 0 0.0 7.8 0.00 0.00 0.00 64 1015.0
20260506182021 79 312 0.0 3.5 0.00 0.00 0.00 64 1015.0
20260506181539 79 273 0.0 6.1 0.00 0.00 0.00 64 1015.2
20260506181023 79 0 0.0 6.1 0.00 0.00 0.00 65 1015.1
20260506180520 79 306 0.0 3.5 0.00 0.00 0.00 63 1015.1
20260506180043 79 0 0.0 3.5 0.00 0.00 0.00 64 1015.3
20260506175520 79 0 0.0 3.5 0.00 0.00 0.00 64 1015.6
20260506175021 79 0 0.0 3.5 0.00 0.00 0.00 64 1015.4
20260506174538 79 52 0.0 3.5 0.00 0.00 0.00 66 1015.4
20260506174021 78 0 0.0 4.3 0.00 0.00 0.00 67 1015.6
20260506173521 78 0 0.0 4.3 0.00 0.00 0.00 66 1015.7
20260506173043 77 203 0.0 4.3 0.00 0.00 0.00 66 1015.9
20260506172520 77 0 0.0 2.6 0.00 0.00 0.00 66 1015.9
20260506172021 78 0 0.0 3.5 0.00 0.00 0.00 66 1016.2
20260506171540 78 0 0.0 3.5 0.00 0.00 0.00 65 1016.3
20260506171026 78 259 0.0 3.5 0.00 0.00 0.00 65 1016.2
20260506170521 78 0 0.0 3.5 0.00 0.00 0.00 64 1016.4
20260506170035 78 225 0.0 3.5 0.00 0.00 0.00 64 1016.3
20260506165521 78 0 0.0 3.5 0.00 0.00 0.00 66 1016.2
20260506165023 78 0 0.0 3.5 0.00 0.00 0.00 66 1016.4
20260506164545 78 298 0.0 0.9 0.00 0.00 0.00 66 1016.4
20260506164022 78 0 0.0 2.6 0.00 0.00 0.00 67 1016.5
20260506163521 78 0 0.0 2.6 0.00 0.00 0.00 66 1016.6
20260506163035 78 0 0.0 2.6 0.00 0.00 0.00 66 1016.8
20260506162520 78 0 0.0 4.3 0.00 0.00 0.00 67 1016.8
20260506162018 78 109 0.0 4.3 0.00 0.00 0.00 67 1016.5
20260506161534 77 0 0.0 3.5 0.00 0.00 0.00 69 1016.6
20260506161022 77 0 0.0 6.1 0.00 0.00 0.00 70 1016.6
20260506160522 76 0 0.0 6.1 0.00 0.00 0.00 71 1016.5
20260506160041 76 0 0.0 3.5 0.00 0.00 0.00 71 1016.5
20260506155522 75 0 0.0 1.7 0.00 0.00 0.00 73 1016.5
20260506155018 75 0 0.0 2.6 0.00 0.00 0.00 73 1016.4
20260506154547 74 0 0.0 2.6 0.00 0.00 0.00 74 1016.3
20260506154018 74 0 0.0 1.7 0.00 0.00 0.00 72 1016.3
20260506153520 74 0 0.0 0.9 0.00 0.00 0.00 72 1016.4
20260506153036 74 0 0.0 0.9 0.00 0.00 0.00 73 1016.3
20260506152522 74 0 0.0 0.9 0.00 0.00 0.00 73 1016.2
20260506152019 74 0 0.0 1.7 0.00 0.00 0.00 73 1016.3
20260506151536 74 0 0.0 3.5 0.00 0.00 0.00 72 1016.3
20260506151018 73 0 0.0 3.5 0.00 0.00 0.00 74 1016.3
20260506150521 73 53 0.0 1.7 0.00 0.00 0.00 74 1016.2
20260506150038 72 0 0.0 1.7 0.00 0.00 0.00 74 1016.1
20260506145523 72 0 0.0 0.0 0.00 0.00 0.00 75 1016.1
20260506145019 72 0 0.0 5.2 0.00 0.00 0.00 75 1016.1
20260506144538 71 0 0.0 5.2 0.00 0.00 0.00 75 1016.1
20260506144021 71 0 0.0 4.3 0.00 0.00 0.00 75 1016.2
20260506143520 71 180 0.0 4.3 0.00 0.00 0.00 75 1016.1
20260506143037 71 225 0.0 3.5 0.00 0.00 0.00 75 1016.2
20260506142518 71 0 0.0 3.5 0.00 0.00 0.00 76 1016.2
20260506142017 70 0 0.0 2.6 0.00 0.00 0.00 76 1016.2
20260506141542 70 0 0.0 0.9 0.00 0.00 0.00 77 1016.2
20260506141020 70 0 0.0 0.9 0.00 0.00 0.00 78 1016.3
20260506140519 69 0 0.0 0.9 0.00 0.00 0.00 78 1016.2
20260506140035 69 0 0.0 1.7 0.00 0.00 0.00 79 1016.3
20260506135517 68 0 0.0 5.2 0.00 0.00 0.00 79 1016.2
20260506135019 68 0 0.0 5.2 0.00 0.00 0.00 79 1016.4
20260506134535 68 0 0.0 5.2 0.00 0.00 0.00 80 1016.4
20260506134020 67 0 0.0 0.0 0.00 0.00 0.00 80 1016.3
20260506133520 67 0 0.0 0.0 0.00 0.00 0.00 81 1016.0
20260506133037 66 0 0.0 0.0 0.00 0.00 0.00 81 1016.0
20260506132519 66 0 0.0 2.6 0.00 0.00 0.00 82 1016.3
20260506132020 66 0 0.0 2.6 0.00 0.00 0.00 82 1016.2
20260506131538 65 323 0.0 1.7 0.00 0.00 0.00 82 1016.2
20260506131021 65 0 0.0 1.7 0.00 0.00 0.00 83 1016.3
20260506130523 65 0 0.0 1.7 0.00 0.00 0.00 83 1016.3
20260506130035 64 0 0.0 1.7 0.00 0.00 0.00 84 1016.4
20260506125519 64 0 0.0 1.7 0.00 0.00 0.00 84 1016.3
20260506125022 64 0 0.0 2.6 0.00 0.00 0.00 85 1016.4
20260506124538 63 0 0.0 2.6 0.00 0.00 0.00 86 1016.4
20260506124020 63 0 0.0 0.9 0.00 0.00 0.00 86 1016.2
20260506123520 63 0 0.0 0.9 0.00 0.00 0.00 87 1016.1
20260506123040 62 275 0.0 0.9 0.00 0.00 0.00 88 1016.0
20260506122519 62 0 0.0 0.9 0.00 0.00 0.00 89 1016.0
20260506122019 62 0 0.0 0.0 0.00 0.00 0.00 89 1016.1
20260506121534 62 0 0.0 0.0 0.00 0.00 0.00 89 1016.0
20260506121020 61 0 0.0 0.0 0.00 0.00 0.00 89 1015.9
20260506120521 61 0 0.0 0.0 0.00 0.00 0.00 89 1015.8
20260506120104 61 0 0.0 0.0 0.00 0.00 0.00 90 1015.8
20260506115521 61 0 0.0 0.0 0.00 0.00 0.00 90 1015.9
20260506115019 61 0 0.0 0.0 0.00 0.00 0.00 90 1016.1
20260506114536 61 0 0.0 0.0 0.00 0.00 0.00 90 1015.8
20260506114020 60 0 0.0 0.0 0.00 0.00 0.00 90 1015.6
20260506113521 60 0 0.0 0.0 0.00 0.00 0.00 90 1015.4
20260506113036 60 0 0.0 0.0 0.00 0.00 0.00 90 1015.2
20260506112520 60 0 0.0 0.0 0.00 0.00 0.00 90 1015.1
20260506112020 60 0 0.0 0.0 0.00 0.00 0.00 89 1015.1
20260506111534 60 0 0.0 0.0 0.00 0.00 0.00 89 1015.2
20260506111019 60 0 0.0 0.0 0.00 0.00 0.00 89 1015.2
20260506110519 60 0 0.0 0.0 0.00 0.00 0.00 88 1015.2
20260506110032 60 0 0.0 0.0 0.00 0.00 0.00 88 1015.2
20260506105519 60 0 0.0 0.0 0.00 0.00 0.00 88 1015.3
20260506105020 60 0 0.0 0.0 0.00 0.00 0.00 88 1015.2
20260506104540 60 0 0.0 0.9 0.00 0.00 0.00 88 1015.1
20260506104022 60 0 0.0 0.9 0.00 0.00 0.00 88 1015.2
20260506103519 60 0 0.0 0.9 0.00 0.00 0.00 88 1015.1
20260506103036 60 0 0.0 0.0 0.00 0.00 0.00 87 1015.1
20260506102519 60 0 0.0 0.0 0.00 0.00 0.00 87 1015.1
20260506102019 60 0 0.0 0.0 0.00 0.00 0.00 87 1015.1
20260506101536 60 0 0.0 0.0 0.00 0.00 0.00 87 1015.0
20260506101020 60 0 0.0 0.0 0.00 0.00 0.00 87 1015.0
20260506100519 60 0 0.0 0.0 0.00 0.00 0.00 87 1014.9
20260506100035 60 0 0.0 0.0 0.00 0.00 0.00 87 1014.9
20260506095520 60 0 0.0 0.0 0.00 0.00 0.00 86 1014.9
20260506095021 60 0 0.0 0.0 0.00 0.00 0.00 86 1015.0
20260506094536 60 0 0.0 0.0 0.00 0.00 0.00 86 1015.2
20260506094018 60 0 0.0 0.0 0.00 0.00 0.00 86 1015.4
20260506093519 60 0 0.0 0.0 0.00 0.00 0.00 85 1015.5
20260506093045 60 0 0.0 0.0 0.00 0.00 0.00 85 1015.4
20260506092520 60 0 0.0 0.0 0.00 0.00 0.00 85 1015.5
20260506092020 61 0 0.0 0.0 0.00 0.00 0.00 85 1015.4
20260506091536 61 0 0.0 0.0 0.00 0.00 0.00 85 1015.4
20260506091019 61 0 0.0 0.9 0.00 0.00 0.00 85 1015.4
20260506090519 61 0 0.0 0.9 0.00 0.00 0.00 85 1015.3
20260506090035 61 0 0.0 0.9 0.00 0.00 0.00 85 1015.3
20260506085521 61 0 0.0 0.9 0.00 0.00 0.00 84 1015.4
20260506085021 61 0 0.0 0.9 0.00 0.00 0.00 83 1015.4
20260506084536 61 0 0.0 0.0 0.00 0.00 0.00 83 1015.5
20260506084020 61 0 0.0 0.0 0.00 0.00 0.00 83 1015.7
20260506083523 61 0 0.0 0.0 0.00 0.00 0.00 82 1015.6
20260506083038 61 0 0.0 0.0 0.00 0.00 0.00 82 1015.6
20260506082518 61 0 0.0 0.0 0.00 0.00 0.00 82 1015.7
20260506082020 61 0 0.0 0.0 0.00 0.00 0.00 82 1015.8
20260506081536 61 0 0.0 0.0 0.00 0.00 0.00 81 1015.8
20260506081019 62 0 0.0 0.0 0.00 0.00 0.00 81 1015.8
20260506080519 62 0 0.0 0.0 0.00 0.00 0.00 81 1015.9
20260506073520 62 0 0.0 0.0 0.00 0.00 0.00 80 1015.8
20260506073036 62 0 0.0 0.0 0.00 0.00 0.00 80 1015.8
20260506072520 62 0 0.0 0.0 0.00 0.00 0.00 80 1015.7
20260506072021 62 0 0.0 0.0 0.00 0.00 0.00 80 1015.8
20260506071542 62 0 0.0 0.0 0.00 0.00 0.00 80 1015.8
20260506071019 63 0 0.0 0.0 0.00 0.00 0.00 79 1015.7
20260506070519 63 0 0.0 0.0 0.00 0.00 0.00 79 1015.6
20260506062517 63 0 0.0 0.0 0.00 0.00 0.00 77 1015.8
20260506062020 63 0 0.0 0.0 0.00 0.00 0.00 77 1015.7
20260506061537 63 0 0.0 0.0 0.00 0.00 0.00 77 1015.7
20260506061021 63 0 0.0 0.0 0.00 0.00 0.00 77 1015.9
20260506060521 63 0 0.0 0.0 0.00 0.00 0.00 77 1015.9
20260506051019 64 0 0.0 0.9 0.00 0.00 0.00 75 1016.1
20260506050520 65 0 0.0 0.9 0.00 0.00 0.00 74 1016.1
20260506045018 65 0 0.0 1.7 0.00 0.01 0.00 74 1016.2
20260506044550 65 0 0.0 1.7 0.00 0.01 0.00 74 1016.3
20260506044019 65 0 0.0 1.7 0.00 0.01 0.00 73 1016.5
20260506043519 66 0 0.0 0.9 0.00 0.01 0.00 73 1016.3
20260506043033 66 0 0.0 2.6 0.00 0.01 0.00 73 1016.4
20260506042520 66 0 0.0 2.6 0.00 0.01 0.00 73 1016.3
20260506042020 66 0 0.0 0.9 0.00 0.01 0.00 72 1016.5
20260506041540 66 0 0.0 0.9 0.00 0.01 0.00 71 1016.5
20260506041019 66 0 0.0 0.0 0.00 0.01 0.00 71 1016.5
20260506040519 66 0 0.0 0.0 0.00 0.01 0.00 71 1016.6
20260506040043 67 0 0.0 0.9 0.00 0.01 0.00 70 1016.6
20260506035519 67 0 0.0 0.9 0.00 0.01 0.01 70 1016.5
20260506035019 67 0 0.0 0.9 0.00 0.01 0.01 70 1016.5
20260506034536 67 0 0.0 0.9 0.00 0.01 0.01 69 1016.5
20260506034020 67 0 0.0 0.9 0.00 0.01 0.01 69 1016.5
20260506033519 67 0 0.0 0.9 0.00 0.01 0.01 69 1016.5
20260506033036 67 0 0.0 0.9 0.00 0.01 0.01 68 1016.4
20260506032522 68 0 0.0 2.6 0.00 0.01 0.01 68 1016.4
20260506032020 68 0 0.0 2.6 0.00 0.01 0.01 68 1016.4
20260506031553 68 0 0.0 2.6 0.00 0.01 0.01 67 1016.2
20260506031020 68 0 0.0 1.7 0.00 0.01 0.01 66 1016.2
20260506030519 68 146 0.0 6.1 0.00 0.01 0.01 66 1016.2
20260506030056 68 0 0.0 6.1 0.00 0.01 0.01 66 1016.2
20260506025523 69 115 0.0 2.6 0.00 0.01 0.01 65 1016.1
20260506025019 69 0 0.0 2.6 0.00 0.01 0.01 65 1016.1
20260506024540 69 59 0.0 1.7 0.00 0.01 0.01 64 1016.2
20260506024023 69 0 0.0 1.7 0.00 0.01 0.01 63 1016.2
20260506023519 69 0 0.0 1.7 0.00 0.01 0.01 63 1016.2
20260506023038 70 0 0.0 2.6 0.00 0.01 0.01 62 1016.3
20260506022522 70 0 0.0 5.2 0.00 0.01 0.01 62 1016.4
20260506022022 70 0 0.9 5.2 0.00 0.01 0.01 62 1016.3
20260506021537 70 84 0.0 1.7 0.00 0.01 0.01 62 1016.4
20260506021019 70 0 0.0 2.6 0.00 0.01 0.01 61 1016.3
20260506020525 71 0 0.0 2.6 0.00 0.01 0.01 61 1016.3
20260506020036 71 0 0.0 2.6 0.00 0.01 0.01 61 1016.3
20260506015523 71 0 0.0 2.6 0.00 0.01 0.01 61 1016.1
20260506015022 71 0 0.0 1.7 0.00 0.01 0.01 60 1016.1
20260506014537 72 0 0.0 1.7 0.00 0.01 0.01 59 1015.9
20260506014019 72 0 0.0 1.7 0.00 0.01 0.01 59 1015.9
20260506013519 72 0 0.0 1.7 0.00 0.01 0.01 59 1015.8
20260506013035 72 0 0.0 1.7 0.00 0.01 0.01 59 1015.9
20260506012523 72 0 0.0 2.6 0.00 0.01 0.01 59 1015.8
20260506012019 72 0 0.0 2.6 0.00 0.01 0.01 58 1015.7
20260506011539 73 0 0.0 2.6 0.00 0.01 0.01 58 1015.6
20260506011022 73 0 0.0 2.6 0.00 0.01 0.01 57 1015.5
20260506010522 73 0 0.0 2.6 0.00 0.01 0.01 57 1015.3
20260506010037 73 0 0.0 0.9 0.00 0.01 0.01 56 1015.2
20260506005520 73 0 0.0 0.9 0.00 0.01 0.01 55 1014.8
20260506005022 74 0 0.0 0.9 0.00 0.01 0.01 54 1014.6
20260506004604 74 0 0.0 0.9 0.00 0.01 0.01 54 1014.7
20260506004022 74 0 0.0 0.0 0.00 0.01 0.01 52 1014.6
20260506003519 75 0 0.0 0.0 0.00 0.01 0.01 51 1014.6
20260506003037 75 0 0.0 1.7 0.00 0.01 0.01 49 1014.5
20260506002522 75 0 0.0 1.7 0.00 0.01 0.01 48 1014.4
20260506002022 76 0 0.0 0.0 0.00 0.01 0.01 46 1014.4
20260506001536 76 0 0.0 0.0 0.00 0.01 0.01 45 1014.4
20260506001020 77 0 0.0 0.0 0.00 0.01 0.01 45 1014.3
20260506000520 77 0 0.0 0.0 0.00 0.01 0.01 44 1014.3
20260506000033 78 0 0.0 0.0 0.00 0.01 0.01 44 1014.3
20260505235519 78 0 0.0 0.0 0.00 0.01 0.01 44 1014.3
20260505235023 78 0 0.0 0.0 0.00 0.01 0.01 43 1014.4
20260505234603 78 0 0.0 0.0 0.00 0.01 0.01 42 1014.3
20260505234023 79 0 0.0 0.9 0.00 0.01 0.01 42 1014.3
20260505233520 79 0 0.0 2.6 0.00 0.01 0.01 42 1014.2
20260505233036 79 0 0.0 2.6 0.00 0.01 0.01 41 1014.2
20260505232522 79 0 0.0 2.6 0.00 0.01 0.01 41 1014.3
20260505232023 79 0 0.0 2.6 0.00 0.01 0.01 40 1014.4
20260505231538 80 0 0.0 2.6 0.00 0.01 0.01 40 1014.4
20260505231021 80 0 0.0 2.6 0.00 0.01 0.01 41 1014.3
20260505230521 80 0 0.0 7.8 0.00 0.01 0.01 40 1014.4
20260505230036 81 0 0.0 7.8 0.00 0.01 0.01 39 1014.4
20260505225519 81 0 0.0 0.9 0.00 0.01 0.01 39 1014.4
20260505225019 81 0 0.0 2.6 0.00 0.01 0.01 39 1014.5
20260505224535 81 0 0.0 2.6 0.00 0.01 0.01 38 1014.5
20260505224021 82 12 0.0 0.9 0.00 0.01 0.01 38 1014.3
20260505223519 82 0 0.0 0.9 0.00 0.01 0.01 38 1014.3
20260505223040 82 0 0.0 1.7 0.00 0.01 0.01 38 1014.4
20260505222521 82 0 0.0 1.7 0.00 0.01 0.01 37 1014.4
20260505222023 82 0 0.0 3.5 0.00 0.01 0.01 38 1014.4
20260505221553 82 0 0.0 7.8 0.00 0.01 0.01 37 1014.4
20260505221023 82 87 0.9 7.8 0.00 0.01 0.01 37 1014.3
20260505220520 82 84 0.0 6.1 0.00 0.01 0.01 37 1014.4
20260505220037 82 0 0.0 6.1 0.00 0.01 0.01 38 1014.5
20260505215520 82 119 0.9 6.1 0.00 0.01 0.01 38 1014.4
20260505215021 82 128 0.0 3.5 0.00 0.01 0.01 38 1014.6
20260505214542 82 0 0.0 3.5 0.00 0.01 0.01 38 1014.6
20260505214020 82 0 0.0 2.6 0.00 0.01 0.01 38 1014.6
20260505213519 83 0 0.0 2.6 0.00 0.01 0.01 37 1014.7
20260505213035 83 0 0.0 2.6 0.00 0.01 0.01 38 1014.7
20260505212518 83 114 0.0 7.8 0.00 0.01 0.01 38 1014.7
20260505212023 83 0 0.0 7.8 0.00 0.01 0.01 38 1014.7
20260505211536 83 202 0.0 7.8 0.00 0.01 0.01 37 1014.8
20260505211033 83 0 1.7 7.8 0.00 0.01 0.01 38 1014.7
20260505210521 83 79 0.0 3.5 0.00 0.01 0.01 37 1014.8
20260505210033 83 263 0.0 3.5 0.00 0.01 0.01 36 1014.9
20260505205522 83 0 0.0 6.1 0.00 0.01 0.01 37 1015.0
20260505205021 83 0 0.0 6.1 0.00 0.01 0.01 37 1014.8
20260505204539 83 252 0.0 7.0 0.00 0.01 0.01 38 1014.9
20260505204021 83 0 0.9 7.0 0.00 0.01 0.01 37 1014.9
20260505203521 83 0 0.0 7.0 0.00 0.01 0.01 37 1015.0
20260505203037 83 0 0.0 8.7 0.00 0.01 0.01 38 1014.9
20260505202520 84 0 0.9 8.7 0.00 0.01 0.01 37 1015.1
20260505202021 84 263 1.7 7.0 0.00 0.01 0.01 36 1015.1
20260505201535 85 0 0.0 6.1 0.00 0.01 0.01 36 1015.2
20260505201022 85 0 0.0 7.8 0.00 0.01 0.01 36 1015.2
20260505200520 85 0 0.9 7.8 0.00 0.01 0.01 37 1015.2
20260505200035 85 0 1.7 7.8 0.00 0.01 0.01 37 1015.2
20260505195519 85 0 0.0 4.3 0.00 0.01 0.01 38 1015.3
20260505195022 85 0 0.0 5.2 0.00 0.01 0.01 40 1015.3
20260505194535 85 105 0.9 5.2 0.00 0.01 0.01 37 1015.5
20260505194019 85 58 0.9 5.2 0.00 0.01 0.01 36 1015.5
20260505193521 85 0 0.0 3.5 0.00 0.01 0.01 37 1015.6
20260505193038 85 98 0.0 5.2 0.00 0.01 0.01 38 1015.6
20260505192522 85 111 0.9 6.1 0.00 0.01 0.01 36 1015.7
20260505192021 86 109 0.0 6.1 0.00 0.01 0.01 36 1015.7
20260505191536 86 124 1.7 6.1 0.00 0.01 0.01 35 1015.8
20260505191021 86 0 0.9 6.1 0.00 0.01 0.01 37 1016.0
20260505190523 86 0 0.9 4.3 0.00 0.01 0.01 36 1016.1
20260505190044 86 268 0.0 4.3 0.00 0.01 0.01 36 1016.2
20260505185521 86 231 0.0 3.5 0.00 0.01 0.01 38 1016.3
20260505185022 85 288 0.9 3.5 0.00 0.01 0.01 37 1016.5
20260505184536 86 94 0.0 3.5 0.00 0.01 0.01 39 1016.7